sat.trackr.live / text

‹ back to catalog

STARLINK-32203

NORAD 60331 · 2024-136C

PAYLOAD ACTIVE UNKNOWN

§ Identity

Operator
Country
US
Launch date
2024-08-02
Launch site
AFETR
Launch vehicle
Mass (kg)
RCS (m²)

Purposes: comms

External: N2YO · Heavens-Above · Gunter

§ Orbital elements

Epoch: 2026-09-21T15:10:48.451872Z

Period
93.85 min
Inclination
53.1577°
Eccentricity
0.0001269
Mean motion
15.34384754 rev/d
Perigee alt
461.9 km
Apogee alt
463.6 km
Semi-major
6,840.9 km
B*
-1.6072e-5
RAAN
232.0908°
Arg perigee
94.1573°
Mean anomaly
265.9574°
Rev number
11,985

§ Raw data

STARLINK-322031 60331U 24136C   26264.63250523 -.00000919  00000+0 -16072-4 0  99952 60331  53.1577 232.0908 0001269  94.1573 265.9574 15.34384754119850

JSON: /api/v1/satellites/60331 · /tle

For live sub-satellite position, see the globe view (requires WebGL).

§ Visibility from observer

Set your observer location to see the next 7 days of passes ≥ 10°. The values pass through the URL so the page stays shareable.

No JS? Fill the form by hand. The geolocation button needs JavaScript.